• en France
  • Liste des pays
  • À 7 jours
  • Température de l'eau
  • Carte satellitaire
  • Carte météo
  • Widgets météo
  • user-avatar
    Se connecter

    Météo par heure à Pecz

    Ce jour, 22 Juillet, Dimanche

    Heure Température Précipitation Vent Pression Humidité
    00:00 +23°C° 1,6 mm 1 m/s 739 mmHg 79%
    01:00 +22°C° 1,6 mm 1 m/s 739 mmHg 86%
    02:00 +21°C° 0,2 mm 1 m/s 739 mmHg 86%
    03:00 +21°C° 0,2 mm 1 m/s 739 mmHg 86%
    04:00 +21°C° 0,2 mm 1 m/s 739 mmHg 86%
    05:00 +22°C° 0,2 mm 1 m/s 739 mmHg 84%
    06:00 +23°C° 0,2 mm 2 m/s 739 mmHg 82%
    07:00 +24°C° 0,2 mm 2 m/s 739 mmHg 81%
    08:00 +25°C° 0,7 mm 2 m/s 739 mmHg 74%
    09:00 +26°C° 0,7 mm 2 m/s 739 mmHg 67%
    10:00 +28°C° 0,7 mm 2 m/s 739 mmHg 61%
    11:00 +29°C° 0 mm 2 m/s 739 mmHg 54%
    12:00 +30°C° 0 mm 2 m/s 738 mmHg 48%
    13:00 +32°C° 0 mm 2 m/s 738 mmHg 42%
    14:00 +31°C° 0 mm 2 m/s 738 mmHg 42%
    15:00 +31°C° 0 mm 2 m/s 738 mmHg 42%
    16:00 +31°C° 0 mm 2 m/s 738 mmHg 43%
    17:00 +29°C° 0 mm 2 m/s 738 mmHg 48%
    18:00 +28°C° 0 mm 2 m/s 738 mmHg 54%
    19:00 +26°C° 0 mm 2 m/s 738 mmHg 60%
    20:00 +25°C° 0,6 mm 2 m/s 738 mmHg 65%
    21:00 +24°C° 0,6 mm 2 m/s 738 mmHg 70%
    22:00 +21°C° 0,6 mm 2 m/s 738 mmHg 75%
    23:00 +22°C° 1,3 mm 1 m/s 738 mmHg 79%

    Demain, 23 Juillet, Lundi

    Heure Température Précipitation Vent Pression Humidité
    00:00 +21°C° 1,3 mm 1 m/s 738 mmHg 83%
    01:00 +20°C° 1,3 mm 1 m/s 738 mmHg 87%
    02:00 +20°C° 0,5 mm 1 m/s 738 mmHg 89%
    03:00 +19°C° 0,5 mm 2 m/s 738 mmHg 90%
    04:00 +19°C° 0,5 mm 2 m/s 738 mmHg 91%
    05:00 +19°C° 0,3 mm 2 m/s 738 mmHg 90%
    06:00 +20°C° 0,3 mm 3 m/s 738 mmHg 89%
    07:00 +20°C° 0,3 mm 3 m/s 738 mmHg 87%
    08:00 +21°C° 0,7 mm 3 m/s 738 mmHg 83%
    09:00 +24°C° 0,7 mm 3 m/s 738 mmHg 78%
    10:00 +25°C° 0,7 mm 3 m/s 738 mmHg 73%
    11:00 +26°C° 0,6 mm 4 m/s 738 mmHg 69%
    12:00 +27°C° 0,6 mm 4 m/s 738 mmHg 64%
    13:00 +28°C° 0,6 mm 4 m/s 738 mmHg 59%
    14:00 +28°C° 1 mm 4 m/s 738 mmHg 61%
    15:00 +28°C° 1 mm 4 m/s 738 mmHg 63%
    16:00 +28°C° 1 mm 4 m/s 738 mmHg 65%
    17:00 +26°C° 0,7 mm 4 m/s 738 mmHg 70%
    18:00 +25°C° 0,7 mm 3 m/s 738 mmHg 74%
    19:00 +24°C° 0,7 mm 3 m/s 738 mmHg 79%
    20:00 +22°C° 0,1 mm 3 m/s 739 mmHg 79%
    21:00 +22°C° 0,1 mm 4 m/s 739 mmHg 78%
    22:00 +21°C° 0,1 mm 4 m/s 739 mmHg 78%
    23:00 +21°C° 0 mm 4 m/s 739 mmHg 79%

    Après-demain, 24 Juillet, Mardi

    Heure Température Précipitation Vent Pression Humidité
    00:00 +20°C° 0 mm 3 m/s 739 mmHg 80%
    01:00 +20°C° 0 mm 3 m/s 739 mmHg 80%
    02:00 +19°C° 0 mm 3 m/s 740 mmHg 82%
    03:00 +19°C° 0 mm 3 m/s 740 mmHg 83%
    04:00 +19°C° 0 mm 3 m/s 740 mmHg 84%
    05:00 +20°C° 0 mm 3 m/s 740 mmHg 80%
    06:00 +21°C° 0 mm 4 m/s 740 mmHg 76%
    07:00 +22°C° 0 mm 4 m/s 741 mmHg 72%
    08:00 +25°C° 0 mm 4 m/s 741 mmHg 64%
    09:00 +27°C° 0 mm 4 m/s 741 mmHg 57%
    10:00 +28°C° 0 mm 4 m/s 741 mmHg 49%
    11:00 +29°C° 0 mm 4 m/s 740 mmHg 46%
    12:00 +30°C° 0 mm 4 m/s 740 mmHg 43%
    13:00 +32°C° 0 mm 4 m/s 740 mmHg 39%
    14:00 +32°C° 0 mm 4 m/s 740 mmHg 39%
    15:00 +32°C° 0 mm 4 m/s 739 mmHg 39%
    16:00 +32°C° 0 mm 4 m/s 739 mmHg 39%
    17:00 +29°C° 0 mm 4 m/s 739 mmHg 45%
    18:00 +28°C° 0 mm 3 m/s 739 mmHg 52%
    19:00 +26°C° 0 mm 2 m/s 739 mmHg 58%
    20:00 +25°C° 0 mm 2 m/s 739 mmHg 61%
    21:00 +24°C° 0 mm 2 m/s 740 mmHg 63%
    22:00 +23°C° 0 mm 2 m/s 740 mmHg 66%
    23:00 +21°C° 0 mm 2 m/s 740 mmHg 69%

    25 Juillet, Mercredi

    Heure Température Précipitation Vent Pression Humidité
    00:00 +21°C° 0 mm 2 m/s 740 mmHg 72%
    01:00 +20°C° 0 mm 2 m/s 740 mmHg 75%
    02:00 +20°C° 0 mm 2 m/s 740 mmHg 77%
    03:00 +19°C° 0 mm 2 m/s 740 mmHg 79%
    04:00 +19°C° 0 mm 2 m/s 740 mmHg 81%
    05:00 +20°C° 0 mm 2 m/s 740 mmHg 77%
    06:00 +23°C° 0 mm 2 m/s 741 mmHg 72%
    07:00 +24°C° 0 mm 3 m/s 741 mmHg 67%
    08:00 +26°C° 0 mm 3 m/s 741 mmHg 61%
    09:00 +27°C° 0 mm 3 m/s 741 mmHg 55%
    10:00 +29°C° 0 mm 3 m/s 742 mmHg 48%
    11:00 +29°C° 0,1 mm 3 m/s 741 mmHg 46%
    12:00 +30°C° 0,1 mm 3 m/s 741 mmHg 44%
    13:00 +31°C° 0,1 mm 3 m/s 740 mmHg 42%
    14:00 +31°C° 0 mm 3 m/s 740 mmHg 41%
    15:00 +31°C° 0 mm 3 m/s 740 mmHg 40%
    16:00 +31°C° 0 mm 3 m/s 740 mmHg 39%
    17:00 +30°C° 0 mm 3 m/s 740 mmHg 45%
    18:00 +28°C° 0 mm 2 m/s 740 mmHg 50%
    19:00 +26°C° 0 mm 2 m/s 740 mmHg 55%
    20:00 +25°C° 0 mm 2 m/s 740 mmHg 58%
    21:00 +24°C° 0 mm 1 m/s 740 mmHg 61%
    22:00 +23°C° 0 mm 1 m/s 741 mmHg 63%
    23:00 +23°C° 0 mm 1 m/s 741 mmHg 65%

    26 Juillet, Jeudi

    Heure Température Précipitation Vent Pression Humidité
    00:00 +22°C° 0 mm 1 m/s 741 mmHg 67%
    01:00 +21°C° 0 mm 2 m/s 741 mmHg 69%
    02:00 +21°C° 0 mm 2 m/s 741 mmHg 72%
    03:00 +20°C° 0 mm 2 m/s 741 mmHg 75%
    04:00 +20°C° 0 mm 2 m/s 741 mmHg 78%
    05:00 +21°C° 0 mm 2 m/s 741 mmHg 74%
    06:00 +23°C° 0 mm 2 m/s 741 mmHg 71%
    07:00 +25°C° 0 mm 2 m/s 742 mmHg 67%
    08:00 +26°C° 0,1 mm 2 m/s 742 mmHg 62%
    09:00 +28°C° 0,1 mm 3 m/s 742 mmHg 56%
    10:00 +29°C° 0,1 mm 3 m/s 741 mmHg 50%
    11:00 +30°C° 0,1 mm 3 m/s 741 mmHg 48%
    12:00 +32°C° 0,1 mm 4 m/s 741 mmHg 45%
    13:00 +33°C° 0,1 mm 4 m/s 741 mmHg 42%
    14:00 +33°C° 0,1 mm 4 m/s 741 mmHg 42%
    15:00 +33°C° 0,1 mm 3 m/s 740 mmHg 43%
    16:00 +33°C° 0,1 mm 3 m/s 740 mmHg 43%
    17:00 +30°C° 0 mm 3 m/s 740 mmHg 47%
    18:00 +29°C° 0 mm 2 m/s 740 mmHg 52%
    19:00 +27°C° 0 mm 2 m/s 740 mmHg 56%
    20:00 +26°C° 0,1 mm 2 m/s 741 mmHg 59%
    21:00 +25°C° 0,1 mm 1 m/s 741 mmHg 61%
    22:00 +24°C° 0,1 mm 1 m/s 741 mmHg 63%
    23:00 +24°C° 0,1 mm 2 m/s 741 mmHg 66%

    27 Juillet, Vendredi

    Heure Température Précipitation Vent Pression Humidité
    00:00 +23°C° 0,1 mm 2 m/s 741 mmHg 69%
    01:00 +23°C° 0,1 mm 2 m/s 741 mmHg 71%
    02:00 +21°C° 0 mm 2 m/s 741 mmHg 74%
    03:00 +20°C° 0 mm 2 m/s 741 mmHg 77%
    04:00 +20°C° 0 mm 2 m/s 741 mmHg 80%
    05:00 +21°C° 0 mm 2 m/s 741 mmHg 76%
    06:00 +23°C° 0 mm 2 m/s 742 mmHg 72%
    07:00 +25°C° 0 mm 2 m/s 742 mmHg 69%
    08:00 +26°C° 0 mm 2 m/s 742 mmHg 63%
    09:00 +28°C° 0 mm 2 m/s 742 mmHg 57%
    10:00 +30°C° 0 mm 2 m/s 742 mmHg 51%
    11:00 +31°C° 0,1 mm 2 m/s 741 mmHg 47%
    12:00 +32°C° 0,1 mm 2 m/s 741 mmHg 43%
    13:00 +34°C° 0,1 mm 2 m/s 741 mmHg 40%
    14:00 +34°C° 0 mm 2 m/s 741 mmHg 40%
    15:00 +32°C° 0 mm 1 m/s 741 mmHg 40%
    16:00 +32°C° 0 mm 1 m/s 740 mmHg 40%
    17:00 +31°C° 0 mm 1 m/s 741 mmHg 44%
    18:00 +30°C° 0 mm 1 m/s 741 mmHg 48%
    19:00 +28°C° 0 mm 1 m/s 741 mmHg 52%
    20:00 +27°C° 0 mm 1 m/s 741 mmHg 54%
    21:00 +26°C° 0 mm 1 m/s 741 mmHg 57%
    22:00 +24°C° 0 mm 1 m/s 741 mmHg 60%
    23:00 +24°C° 0 mm 1 m/s 741 mmHg 62%
    Voir plus